This is the latest recevied weather packets stored in our database for station/object K5SVV. If no packets are shown the sender has not sent any weather packets the latest 10 day(s).
| Time | Temp. | Humidity | Pressure | Rain* | Wind** | Luminosity | Snow |
|---|---|---|---|---|---|---|---|
| 1788205786 | 36.11° C | 38% | 1014.8 hPa | 0 mm | - | 753 W/m² | - |
| 1788205469 | 36.67° C | 40% | 1014.9 hPa | 0 mm | - | 168 W/m² | - |
| 1788205168 | 37.22° C | 38% | 1015.1 hPa | 0 mm | - | 200 W/m² | - |
| 1788204868 | 36.67° C | 38% | 1015 hPa | 0 mm | - | 767 W/m² | - |
| 1788204558 | 36.67° C | 39% | 1015.3 hPa | 0 mm | - | 804 W/m² | - |
| 1788204254 | 36.67° C | 41% | 1015.6 hPa | 0 mm | - | 207 W/m² | - |
| 1788203949 | 37.22° C | 39% | 1015.5 hPa | 0 mm | - | 204 W/m² | - |
| 1788203645 | 37.22° C | 40% | 1015.4 hPa | 0 mm | - | 797 W/m² | - |
| 1788203341 | 37.22° C | 39% | 1015.5 hPa | 0 mm | - | 791 W/m² | - |
| 1788203040 | 36.67° C | 37% | 1015.5 hPa | 0 mm | - | 833 W/m² | - |
| 1788202740 | 36.67° C | 40% | 1015.6 hPa | 0 mm | - | 848 W/m² | - |
| 1788202436 | 36.67° C | 41% | 1015.4 hPa | 0 mm | - | 248 W/m² | - |
| 1788202135 | 36.67° C | 41% | 1015.4 hPa | 0 mm | - | 822 W/m² | - |
| 1788201830 | 36.67° C | 39% | 1015.7 hPa | 0 mm | - | 837 W/m² | - |
| 1788201525 | 36.11° C | 42% | 1015.5 hPa | 0 mm | - | 824 W/m² | - |
| 1788201225 | 36.11° C | 42% | 1015.7 hPa | 0 mm | - | 819 W/m² | - |
| 1788200924 | 36.11° C | 42% | 1015.9 hPa | 0 mm | - | 790 W/m² | - |
| 1788200619 | 36.67° C | 41% | 1015.8 hPa | 0 mm | - | 842 W/m² | - |
| 1788200315 | 36.11° C | 43% | 1015.9 hPa | 0 mm | - | 801 W/m² | - |
| 1788200010 | 35.56° C | 45% | 1015.9 hPa | 0 mm | - | 789 W/m² | - |
| 1788199704 | 35.56° C | 43% | 1016 hPa | 0 mm | - | 763 W/m² | - |
| 1788199399 | 35° C | 45% | 1016.3 hPa | 0 mm | - | 775 W/m² | - |
| 1788199098 | 35.56° C | 44% | 1016.3 hPa | 0 mm | - | 171 W/m² | - |
| 1788198795 | 35.56° C | 45% | 1016.3 hPa | 0 mm | - | 777 W/m² | - |
| 1788198490 | 35.56° C | 45% | 1016.4 hPa | 0 mm | - | 750 W/m² | - |
* Rain latest hour (hover to see other rain measurements)
** Current wind speed in m/s (hover to see current wind gust speed)